Flag for Hungary Weather past 2 weeks in Pécs, Hungary

Now
42 °F

Scattered clouds.


Feels Like: 39 °F
Forecast: 46 / 60 °F
Wind: 5 mph from Northwest

Location: Pecs / Pogany

Current Time: Mar 29, 2015 at 9:57:46 AM

Latest Report: Mar 29, 2015 at 9:00 AM


Visibility: 19 mi

Pressure: 29.97 "Hg

Humidity: 64%

Dew point: 31 °F

Location of PécsLocation

Historic Weather in Pécs — Graph

°F

Pécs temperature yesterday

Maximum temperature yesterday: 55 °F (at 1:00 PM)
Minimum temperature yesterday: 44 °F (at 11:00 PM)
Average temperature yesterday: 48 °F

Past Weeks' High & Low Weather Summary

 TemperatureHumidityPressure
High70 °F (Mar 26, 3:00 PM)99% (Mar 15, 7:00 AM)30.52 "Hg (Mar 15, 7:00 AM)
Low31 °F (Mar 20, 5:00 AM)29% (Mar 19, 4:00 PM)29.72 "Hg (Mar 27, 4:00 AM)
Average46 °F64%30.13 "Hg
* Reported Mar 14 7:00 AM — Mar 29 8:00 AM, Pécs, Weather by CustomWeather, © 2015

Note: Actual official high and low records may vary slightly from our data, if they occured in-between our weather recording intervals... More about our weather records

Advertising

Pécs weather history for previous 24 hours

 ConditionsComfort  
Time TempWeatherWind HumidityBarometerVisibility
8:00 AM
Sun, Mar 29
38 °FPassing clouds.3 mph71%29.97 "Hg19 mi
7:00 AM37 °FSunny.5 mph73%29.96 "Hg19 mi
6:00 AM39 °FClear.5 mph68%29.97 "Hg19 mi
5:00 AM40 °FClear.3 mph66%29.97 "Hg19 mi
4:00 AM40 °FClear.5 mph67%29.97 "Hg19 mi
3:00 AM37 °FClear.2 mph73%29.99 "Hg19 mi
1:00 AM42 °FPassing clouds.6 mph62%29.99 "Hg19 mi
12:00 AM42 °FPassing clouds.6 mph62%29.99 "Hg19 mi
11:00 PM
Sat, Mar 28
44 °FPassing clouds.6 mph58%29.99 "Hg19 mi
9:00 PM46 °FPassing clouds.7 mph57%30.01 "Hg25 mi
8:00 PM47 °FOvercast.6 mph56%30.01 "Hg25 mi
7:00 PM47 °FOvercast.5 mph55%30.01 "Hg25 mi
6:00 PM48 °FOvercast.8 mph52%29.99 "Hg31 mi
5:00 PM49 °FOvercast.8 mph49%29.98 "Hg31 mi
4:00 PM51 °FPartly sunny.9 mph48%29.98 "Hg31 mi
3:00 PM51 °FPartly sunny.9 mph46%29.97 "Hg25 mi
2:00 PM54 °FPartly sunny.13 mph46%29.96 "Hg25 mi
1:00 PM55 °FPartly sunny.12 mph42%29.97 "Hg25 mi
12:00 PM52 °FOvercast.12 mph48%29.98 "Hg25 mi
11:00 AM50 °FOvercast.9 mph53%30.00 "Hg25 mi
10:00 AM48 °FOvercast.10 mph56%30.00 "Hg25 mi
9:00 AM46 °FOvercast.9 mph59%30.00 "Hg25 mi
Weather by CustomWeather, © 2015

See weather overviewHow to use our weather pages